Location: Dallas
(32.7833°N, 96.8000°W)
Time: 18:01:03
(UTC-06:00)

Envisat - Pass Details

Date: 27 October 2019
Orbit: 764 x 766 km, 98.1° (Epoch: 16 November)

Event Time Altitude Azimuth Distance (km) Brightness Sun altitude
Rises 06:58:33 0° 38° (NE) 3,232 6.7 -9.5°
Reaches altitude 10° 07:02:22 10° 68° (ENE) 2,300 6.5 -8.7°
Maximum altitude 07:04:26 12° 92° (E) 2,133 6.9 -8.3°
Drops below altitude 10° 07:06:30 10° 117° (ESE) 2,294 6.9 -7.8°
Sets 07:10:16 0° 146° (SE) 3,214 7.0 -7.1°
